Location: Bemmer
(51.5498°N, 5.6249°E)
Time: 02:57:57
(UTC+00:00)

Ariane Rocket - Pass Details

Date: 03 March 2021
Orbit: 759 x 771 km, 98.7° (Epoch: 13 April)

Event Time Altitude Azimuth Distance (km) Brightness Sun altitude
Exits shadow 20:22:15 19° 210° (SSW) 1,757 4.8 -28.1°
Maximum altitude 20:25:13 35° 264° (W) 1,234 4.4 -28.5°
Drops below altitude 10° 20:29:54 10° 330° (NNW) 2,324 6.2 -29.1°
Sets 20:32:25 0° 339° (NNW) 3,254 7.0 -29.5°
